Simultaneous Nadir Overpasses (SNOs) Predictions

Prediction of SNOs between GOES-15 and NOAA-20 Satellite Orbit:

Table of predicted SNOs for the next 14.0 days since TLE Epoch: 8/10/2024
Index Date Time (GOES-15) GOES-15 Lat,Lon NOAA-20 Lat,Lon Distance(km) Time Diff (sec)
1 08/11/2024 09:20:27 -0.42, 61.66 -0.62, 60.70 109.02 80
2 08/12/2024 09:04:21 -0.41, 61.69 0.37, 65.23 403.48 80
3 08/13/2024 21:26:08 0.42, 61.83 0.82, 59.97 211.05 80
4 08/14/2024 21:04:42 0.41, 61.87 -0.18, 64.50 300.20 80
5 08/16/2024 09:26:37 -0.42, 61.87 -1.03, 59.20 303.75 80
6 08/17/2024 09:10:32 -0.41, 61.91 -0.03, 63.74 208.01 80
7 08/18/2024 21:32:18 0.42, 62.04 1.20, 58.47 406.34 80
8 08/19/2024 21:10:53 0.41, 62.09 0.19, 63.00 104.61 80
9 08/22/2024 09:16:42 -0.42, 62.15 -0.41, 62.24 10.97 80
